sat.trackr.live / text

‹ back to catalog

2025-313B

NORAD 67249 · 2025-313B

PAYLOAD ACTIVE UNKNOWN

§ Identity

Operator
Country
TBD
Launch date
2025-12-28
Launch site
VOSTO
Launch vehicle
Mass (kg)
RCS (m²)

External: N2YO · Heavens-Above · Gunter

§ Orbital elements

Epoch: 2026-05-25T03:49:18.418080Z

Period
97.68 min
Inclination
97.5123°
Eccentricity
0.0294221
Mean motion
14.74130081 rev/d
Perigee alt
441.2 km
Apogee alt
854.6 km
Semi-major
7,026.1 km
B*
2.3908e-4
RAAN
212.1992°
Arg perigee
50.4037°
Mean anomaly
312.2757°
Rev number
2,174

§ Raw data

2025-313B1 67249U 25313B   26145.15924095  .00003128  00000+0  23908-3 0  99932 67249  97.5123 212.1992 0294221  50.4037 312.2757 14.74130081 21742

JSON: /api/v1/satellites/67249 · /tle

For live sub-satellite position, see the globe view (requires WebGL).

§ Visibility from observer

Set your observer location to see the next 7 days of passes ≥ 10°. The values pass through the URL so the page stays shareable.

No JS? Fill the form by hand. The geolocation button needs JavaScript.